"Pseudo-MPEC" for P21Cry6

Created 2022 Dec 22 10:22:20 UT using Find_Orb

Click here for an explanation of pseudo-MPECs

 
 Astrometry: 
     P21Cry6* C2022 12 01T9-*3)?#yAstrometry5NEYM0!e)xf8X!^JpVT#y.-8Ogunku]stF52
     P21Cry6  C2022 12 01p+reredacted;hp,Z(-,Xt`click5Nn+[,[()GWAtQ7O6/nXhereF52
     P21Cry6  C2022 12 01Y9ab1nt`./4#:I/OK73MnTGkvforjexplanation!k#Zkv-'D'gRF52

Station data:
(F52) Pan-STARRS 2, Haleakala  (N20.707382 W156.255910)  US/Hawaii.
   Observers J. Bulger, T. Dukes, T. Lowe, A. Schultz, M. Willman. Measurers
   K. Chambers, S. Chastel, T. de Boer, L. Denneau, J. Fairlamb, H.
   Flewelling, M. Huber, C.-C. Lin, E. Magnier, Y. Ramanjooloo, R. Wainscoat,
   R. Weryk. 1.8-m Ritchey-Chrétien + CCD.

Orbital elements:  P21Cry6
   Perihelion 2023 Jan 3.64449 +/- 45 TT = 15:28:03 (JD 2459948.14449)
Epoch 2022 Dec  2.0 TT = JDT 2459915.5   Earth MOID: 0.3360      AutoNEOCP
M 352.48619371 +/- 17               (J2000 ecliptic)
n   0.23017075 +/- 0.239            Peri.   19.97385 +/- 60
a   2.63695437 +/- 1.82             Node    75.39845 +/- 40
e   0.5027980 +/- 0.249             Incl.   13.66820 +/- 6
P   4.28                   H 23.78  G  0.15   U 11.8  SR
q 1.31109893 +/- 0.303    Q 3.96280981 +/- 54.8
From 3 observations 2022 Dec. 1 (35.3 min); mean residual 0".05
Residuals in arcseconds: 
221201 F52  .04-  .02+    221201 F52  .09+  .05-    221201 F52  .04-  .02+    

Ephemerides (geocentric):
Date (UTC) HH   RA             Dec           delta  r     elong  mag " sig PA
---- --------  ------------   ------------  ------ ------ -----  --- --------
2022 12 22 10  04 32 40.869   +31 02 09.78  .35105 1.3175 159.0 23.0  58d 166
2022 12 22 11  04 32 40.582   +31 03 51.47  .35109 1.3175 159.0 23.0  58d 166
2022 12 22 12  04 32 40.300   +31 05 33.11  .35112 1.3175 158.9 23.0  58d 166
2022 12 22 13  04 32 40.022   +31 07 14.72  .35116 1.3174 158.9 23.0  58d 166
2022 12 22 14  04 32 39.749   +31 08 56.28  .35120 1.3174 158.8 23.0  57d 166
2022 12 22 15  04 32 39.481   +31 10 37.80  .35124 1.3173 158.8 23.0  57d 166
2022 12 22 16  04 32 39.218   +31 12 19.29  .35128 1.3173 158.7 23.0  57d 166
2022 12 22 17  04 32 38.960   +31 14 00.73  .35131 1.3172 158.7 23.0  57d 166
2022 12 22 18  04 32 38.706   +31 15 42.13  .35135 1.3172 158.6 23.0  57d 166
2022 12 22 19  04 32 38.458   +31 17 23.50  .35139 1.3172 158.6 23.0  57d 166
2022 12 22 20  04 32 38.214   +31 19 04.81  .35143 1.3171 158.6 23.0  57d 166
2022 12 22 21  04 32 37.975   +31 20 46.09  .35147 1.3171 158.5 23.0  57d 166
2022 12 22 22  04 32 37.742   +31 22 27.33  .35151 1.3170 158.5 23.0  57d 166
2022 12 22 23  04 32 37.513   +31 24 08.52  .35155 1.3170 158.4 23.0  57d 166
2022 12 23 00  04 32 37.289   +31 25 49.68  .35160 1.3169 158.4 23.0  57d 166
2022 12 23 01  04 32 37.070   +31 27 30.79  .35164 1.3169 158.3 23.0  57d 166
2022 12 23 02  04 32 36.857   +31 29 11.85  .35168 1.3169 158.3 23.0  57d 166
2022 12 23 03  04 32 36.648   +31 30 52.88  .35172 1.3168 158.2 23.0  57d 166
2022 12 23 04  04 32 36.444   +31 32 33.86  .35176 1.3168 158.2 23.0  57d 166
2022 12 23 05  04 32 36.245   +31 34 14.80  .35180 1.3167 158.1 23.0  57d 166
2022 12 23 06  04 32 36.052   +31 35 55.70  .35185 1.3167 158.1 23.0  57d 166
2022 12 23 07  04 32 35.863   +31 37 36.55  .35189 1.3167 158.0 23.0  57d 166
2022 12 23 08  04 32 35.679   +31 39 17.36  .35193 1.3166 158.0 23.0  57d 166
2022 12 23 09  04 32 35.501   +31 40 58.12  .35198 1.3166 157.9 23.0  57d 166
2022 12 23 10  04 32 35.328   +31 42 38.84  .35202 1.3165 157.9 23.0  57d 166
2022 12 23 11  04 32 35.159   +31 44 19.51  .35207 1.3165 157.9 23.0  57d 166
2022 12 23 12  04 32 34.996   +31 46 00.15  .35211 1.3165 157.8 23.0  57d 166
2022 12 23 13  04 32 34.839   +31 47 40.73  .35216 1.3164 157.8 23.0  57d 166
2022 12 23 14  04 32 34.686   +31 49 21.27  .35220 1.3164 157.7 23.0  57d 166
2022 12 23 15  04 32 34.538   +31 51 01.77  .35225 1.3163 157.7 23.0  57d 166
2022 12 23 16  04 32 34.396   +31 52 42.22  .35229 1.3163 157.6 23.0  57d 166
2022 12 23 17  04 32 34.259   +31 54 22.62  .35234 1.3163 157.6 23.0  57d 167
2022 12 23 18  04 32 34.127   +31 56 02.98  .35238 1.3162 157.5 23.0  57d 167
2022 12 23 19  04 32 34.000   +31 57 43.30  .35243 1.3162 157.5 23.0  58d 167
2022 12 23 20  04 32 33.879   +31 59 23.56  .35248 1.3161 157.4 23.0  58d 167
2022 12 23 21  04 32 33.762   +32 01 03.79  .35252 1.3161 157.4 23.1  58d 167
2022 12 23 22  04 32 33.651   +32 02 43.96  .35257 1.3161 157.3 23.1  58d 167
2022 12 23 23  04 32 33.546   +32 04 24.09  .35262 1.3160 157.3 23.1  58d 168
2022 12 24 00  04 32 33.446   +32 06 04.17  .35267 1.3160 157.3 23.1  58d 168
2022 12 24 01  04 32 33.351   +32 07 44.20  .35272 1.3160 157.2 23.1  58d 168
2022 12 24 02  04 32 33.261   +32 09 24.19  .35276 1.3159 157.2 23.1  58d 168
2022 12 24 03  04 32 33.177   +32 11 04.13  .35281 1.3159 157.1 23.1  58d 168
2022 12 24 04  04 32 33.098   +32 12 44.02  .35286 1.3158 157.1 23.1  58d 168
2022 12 24 05  04 32 33.024   +32 14 23.86  .35291 1.3158 157.0 23.1  58d 168
2022 12 24 06  04 32 32.956   +32 16 03.65  .35296 1.3158 157.0 23.1  59d 168
2022 12 24 07  04 32 32.893   +32 17 43.40  .35301 1.3157 156.9 23.1  59d 168
2022 12 24 08  04 32 32.836   +32 19 23.10  .35306 1.3157 156.9 23.1  59d 169
2022 12 24 09  04 32 32.784   +32 21 02.75  .35311 1.3157 156.8 23.1  59d 169